Wahoo, NE

3:15 AM CDT on April 23, 2017 (GMT -0500)
Wahoo Municipal

Weather History for KAHQ - January, 2013

Change the Weather History Date:

Thursday, January 3, 2013

  Actual Average Record
Temperature  
Mean Temperature 23 °F -  
Max Temperature 31 °F 30 °F 62 °F (1964)
Min Temperature 15 °F 10 °F -11 °F (1968)
Degree Days  
Heating Degree Days 42    
Moisture  
Dew Point 18 °F    
Average Humidity 81    
Maximum Humidity 89    
Minimum Humidity 73    
Precipitation  
Precipitation 0.00 in - - ()
Sea Level Pressure  
Sea Level Pressure 30.33 in    
Wind  
Wind Speed 9 mph (West)    
Max Wind Speed 21 mph    
Max Gust Speed 25 mph    
Visibility 10 miles    
Events      
Averages and records for this station are not official NWS values.
T = Trace of Precipitation, MM = Missing Value Source: NWS Daily Summary

Daily Weather History Graph

Daily Weather History Graph

Search for Another Location

Airport or City:

Trip Planner

Search our weather history database for the weather conditions in past years. The results will help you decide how hot, cold, wet, or windy it might be!

Date:

Astronomy

Jan. 03, 2013 Rise Set
Actual Time 7:52 AM CST 5:10 PM CST
Civil Twilight 7:21 AM CST 5:41 PM CST
Nautical Twilight 6:46 AM CST 6:15 PM CST
Astronomical Twilight 6:13 AM CST 6:49 PM CST
Moon 11:51 PM CST (1/3) 11:00 AM CST (1/3)
Length of Visible Light 10h 20m
Length of Day
9h 17m
Waning Gibbous, 65% of the Moon is Illuminated
Jan 3
Waning Gibbous
Jan 4
Last Quarter
Jan 11
New
Jan 18
First Quarter
Jan 26
Full

Hourly Weather History & Observations

Time (CST) Temp. Windchill Dew Point Humidity Pressure Visibility Wind Dir Wind Speed Gust Speed Precip Events Conditions
12:15 AM 31.1 °F 25.4 °F 27.0 °F 85% 30.23 in 10.0 mi WNW 5.8 mph - N/A   Overcast
12:35 AM 31.1 °F 25.4 °F 26.6 °F 83% 30.23 in 10.0 mi WNW 5.8 mph - N/A   Overcast
12:55 AM 31.8 °F 24.6 °F 26.8 °F 82% 30.23 in 10.0 mi NW 8.1 mph - N/A   Overcast
1:15 AM 31.6 °F 23.1 °F 26.6 °F 82% 30.23 in 10.0 mi WNW 10.4 mph - N/A   Overcast
1:55 AM 31.1 °F 21.4 °F 26.1 °F 82% 30.23 in 10.0 mi NW 12.7 mph - N/A   Overcast
2:15 AM 31.1 °F 21.9 °F 26.1 °F 82% 30.24 in 10.0 mi NW 11.5 mph - N/A   Overcast
2:35 AM 30.9 °F 22.2 °F 25.7 °F 81% 30.25 in 10.0 mi NW 10.4 mph - N/A   Overcast
2:55 AM 30.6 °F 21.8 °F 25.7 °F 82% 30.26 in 10.0 mi WNW 10.4 mph - N/A   Overcast
3:15 AM 30.4 °F 21.5 °F 25.3 °F 82% 30.27 in 10.0 mi NW 10.4 mph - N/A   Overcast
3:35 AM 30.2 °F 21.9 °F 25.3 °F 82% 30.27 in 10.0 mi WNW 9.2 mph - N/A   Overcast
3:55 AM 30.2 °F 20.8 °F 25.2 °F 82% 30.27 in 10.0 mi NW 11.5 mph - N/A   Overcast
4:15 AM 30.0 °F 22.4 °F 25.2 °F 82% 30.27 in 10.0 mi NW 8.1 mph - N/A   Overcast
4:35 AM 30.0 °F 21.7 °F 24.8 °F 81% 30.27 in 10.0 mi NW 9.2 mph - N/A   Overcast
4:55 AM 30.2 °F 21.9 °F 24.4 °F 79% 30.28 in 10.0 mi NW 9.2 mph - N/A   Overcast
5:15 AM 30.0 °F 22.4 °F 24.6 °F 80% 30.28 in 10.0 mi WNW 8.1 mph - N/A   Overcast
5:35 AM 29.7 °F 21.3 °F 24.4 °F 81% 30.30 in 10.0 mi NW 9.2 mph - N/A   Overcast
5:55 AM 29.7 °F 21.3 °F 24.4 °F 81% 30.30 in 10.0 mi NW 9.2 mph - N/A   Overcast
6:15 AM 29.7 °F 22.0 °F 24.4 °F 81% 30.31 in 10.0 mi NW 8.1 mph - N/A   Overcast
6:35 AM 29.7 °F 22.0 °F 24.4 °F 81% 30.31 in 10.0 mi NW 8.1 mph 16.1 mph N/A   Overcast
6:55 AM 28.2 °F 15.9 °F 24.3 °F 85% 30.32 in 10.0 mi NNW 17.3 mph - N/A   Overcast
7:15 AM 26.4 °F 15.0 °F 23.0 °F 87% 30.34 in 10.0 mi North 13.8 mph - N/A   Overcast
7:35 AM 25.7 °F 14.0 °F 21.2 °F 83% 30.34 in 10.0 mi NNW 13.8 mph - N/A   Overcast
7:55 AM 24.8 °F 11.9 °F 20.1 °F 82% 30.35 in 10.0 mi NNW 16.1 mph - N/A   Overcast
8:15 AM 24.1 °F 12.0 °F 19.4 °F 82% 30.36 in 10.0 mi North 13.8 mph - N/A   Overcast
8:35 AM 23.7 °F 12.1 °F 19.2 °F 83% 30.37 in 10.0 mi NNW 12.7 mph - N/A   Overcast
8:55 AM 23.5 °F 11.3 °F 18.9 °F 82% 30.38 in 10.0 mi North 13.8 mph - N/A   Overcast
9:35 AM 20.5 °F 5.5 °F 12.9 °F 73% 30.40 in 10.0 mi NNW 18.4 mph 25.3 mph N/A   Overcast
9:55 AM 19.9 °F 5.7 °F 12.7 °F 74% 30.40 in 10.0 mi NNW 16.1 mph 24.2 mph N/A   Overcast
10:15 AM 19.4 °F 3.2 °F 12.4 °F 74% 30.41 in 10.0 mi NNW 20.7 mph - N/A   Overcast
10:35 AM 19.0 °F 4.0 °F 12.2 °F 75% 30.41 in 10.0 mi NNW 17.3 mph - N/A   Overcast
10:55 AM 19.4 °F 6.0 °F 12.9 °F 76% 30.41 in 10.0 mi NNW 13.8 mph - N/A   Mostly Cloudy
11:15 AM 19.9 °F 7.9 °F 13.8 °F 77% 30.41 in 10.0 mi NNW 11.5 mph - N/A   Scattered Clouds
11:35 AM 20.3 °F 7.7 °F 14.5 °F 78% 30.41 in 10.0 mi NNW 12.7 mph - N/A   Clear
11:55 AM 21.0 °F 9.3 °F 15.1 °F 78% 30.40 in 10.0 mi NNW 11.5 mph - N/A   Mostly Cloudy
12:15 PM 21.0 °F 10.6 °F 15.3 °F 78% 30.39 in 10.0 mi North 9.2 mph - N/A   Overcast
12:35 PM 21.2 °F 12.6 °F 15.6 °F 79% 30.39 in 10.0 mi NNW 6.9 mph - N/A   Overcast
12:55 PM 21.7 °F 15.5 °F 16.0 °F 78% 30.38 in 10.0 mi North 4.6 mph - N/A   Overcast
1:35 PM 22.5 °F 15.1 °F 16.3 °F 77% 30.37 in 10.0 mi NW 5.8 mph - N/A   Overcast
1:55 PM 22.8 °F 18.2 °F 16.9 °F 78% 30.36 in 10.0 mi WNW 3.5 mph - N/A   Overcast
2:15 PM 23.0 °F 18.4 °F 17.1 °F 78% 30.36 in 10.0 mi WNW 3.5 mph - N/A   Overcast
2:35 PM 23.4 °F 18.9 °F 17.2 °F 77% 30.36 in 10.0 mi WSW 3.5 mph - N/A   Overcast
2:55 PM 23.7 °F 17.8 °F 17.2 °F 76% 30.36 in 10.0 mi SW 4.6 mph - N/A   Overcast
3:15 PM 23.9 °F 18.0 °F 17.4 °F 76% 30.36 in 10.0 mi SW 4.6 mph - N/A   Overcast
3:35 PM 23.9 °F 19.5 °F 17.8 °F 77% 30.36 in 10.0 mi South 3.5 mph - N/A   Overcast
3:55 PM 24.3 °F 17.3 °F 18.3 °F 78% 30.36 in 10.0 mi South 5.8 mph - N/A   Overcast
4:15 PM 24.8 °F 17.9 °F 18.3 °F 76% 30.36 in 10.0 mi SSW 5.8 mph - N/A   Mostly Cloudy
4:35 PM 24.8 °F 17.9 °F 18.0 °F 75% 30.35 in 10.0 mi SW 5.8 mph - N/A   Scattered Clouds
4:55 PM 23.7 °F 19.3 °F 17.4 °F 77% 30.36 in 10.0 mi SW 3.5 mph - N/A   Scattered Clouds
5:15 PM 24.4 °F 20.1 °F 17.6 °F 75% 30.36 in 10.0 mi SSW 3.5 mph - N/A   Overcast
5:35 PM 22.5 °F 17.8 °F 16.9 °F 79% 30.36 in 10.0 mi South 3.5 mph - N/A   Overcast
5:55 PM 20.5 °F 12.8 °F 16.2 °F 83% 30.36 in 10.0 mi SSW 5.8 mph - N/A   Overcast
6:15 PM 21.9 °F 14.5 °F 16.3 °F 79% 30.36 in 10.0 mi SW 5.8 mph - N/A   Scattered Clouds
6:35 PM 21.2 °F 12.6 °F 15.4 °F 78% 30.36 in 10.0 mi SSW 6.9 mph - N/A   Clear
6:55 PM 21.2 °F 12.6 °F 15.6 °F 79% 30.35 in 10.0 mi SSW 6.9 mph - N/A   Clear
7:15 PM 18.7 °F 10.6 °F 13.8 °F 81% 30.35 in 10.0 mi South 5.8 mph - N/A   Clear
7:35 PM 18.1 °F 10.0 °F 13.6 °F 83% 30.35 in 10.0 mi SSW 5.8 mph - N/A   Clear
7:55 PM 18.0 °F 8.7 °F 13.8 °F 84% 30.35 in 10.0 mi SSW 6.9 mph - N/A   Clear
8:15 PM 15.8 °F 6.1 °F 12.0 °F 85% 30.34 in 10.0 mi SSW 6.9 mph - N/A   Clear
8:35 PM 16.2 °F 7.6 °F 12.7 °F 86% 30.34 in 7.0 mi SW 5.8 mph - N/A   Clear
8:55 PM 15.6 °F 7.0 °F 12.6 °F 88% 30.34 in 10.0 mi SW 5.8 mph - N/A   Clear
9:15 PM 16.3 °F 5.7 °F 12.9 °F 86% 30.33 in 10.0 mi SW 8.1 mph - N/A   Clear
9:35 PM 16.3 °F 7.8 °F 13.1 °F 87% 30.33 in 10.0 mi WSW 5.8 mph - N/A   Clear
9:55 PM 16.5 °F 6.9 °F 13.1 °F 86% 30.33 in 10.0 mi SW 6.9 mph - N/A   Clear
10:15 PM 16.3 °F 7.8 °F 13.1 °F 87% 30.32 in 10.0 mi SW 5.8 mph - N/A   Clear
10:35 PM 15.4 °F 5.6 °F 12.7 °F 89% 30.32 in 10.0 mi SSW 6.9 mph - N/A   Clear
10:55 PM 17.2 °F 6.8 °F 14.0 °F 87% 30.31 in 10.0 mi SSW 8.1 mph - N/A   Clear
11:15 PM 17.4 °F 5.4 °F 14.0 °F 86% 30.31 in 10.0 mi SSW 10.4 mph - N/A   Clear
11:35 PM 16.7 °F 8.3 °F 14.0 °F 89% 30.31 in 10.0 mi SW 5.8 mph - N/A   Clear
11:55 PM 16.7 °F 8.3 °F 13.8 °F 88% 30.31 in 10.0 mi SW 5.8 mph - N/A   Clear